FLOCK 1C-1 (40027 NORAD) Tracking and Keplerian Element Data

This shows tracking and keplerian element data for the satellite.

Feedback or suggestion? Click here.




ElementValue
Catalog40027
NameFLOCK 1C-1
Epoch Orbit19864
Epoch Day45.96287029
Epoch Year2018
RAAN323.5235
Inclination97.9194
Eccentricity0.0011523
Argument of Perigee224.2958
Mean Anonmoly135.7346
Mean Motion14.8918591
Decay Rate-2.42E-06
L11 40027U 14033T 18045.96287029 -.00000242 00000-0 -19576-4 0 9997
L22 40027 97.9194 323.5235 0011523 224.2958 135.7346 14.89185910198644

Live tracking and technical data element details for FLOCK 1C-1 (NORAD 40027). FLOCK 1C-1 can be tracked NOW for your location showing map with azimuth and elevation plus other details from your city location.

Track the satellite on the map from your city or location and see movement details for azimuth, elevation, latitude, longitude, range, height, and movement on the map or in text.







IsCatalogInMostPopularTable: catalog: 40027, numindb: 134
Update: records affected: 1



GetName: 40027 FLOCK 1C-1

Hit Count: updated at: Tue, 22 Oct 2019 23:32:56 GMT